Location: Columbia
(38.9520°N, 92.3340°W)
Time: 04:36:31
(UTC-05:00)

Meteor 1-4 Rocket - Visible Passes

Search period start: 27 June 2016 00:00
Search period end: 07 July 2016 00:00
Orbit: 457 x 512 km, 81.2° (Epoch: 25 June)

Date Brightness Start Highest point End Pass type
(mag) Time Alt. Az. Time Alt. Az. Time Alt. Az.
27 Jun 5.3 00:06:49 10° WNW 00:08:26 12° W 00:08:33 12° W visible
27 Jun 4.1 22:05:49 10° NNE 22:08:49 22° ENE 22:09:49 20° E visible
27 Jun 4.7 23:41:07 10° NW 23:43:52 20° W 23:44:12 19° W visible
28 Jun 4.7 21:41:50 10° NE 21:43:57 14° ENE 21:45:29 12° E visible
28 Jun 4.0 23:15:56 10° NNW 23:19:15 31° W 23:19:51 29° WSW visible
29 Jun 3.2 22:50:58 10° NNW 22:54:36 51° W 22:55:32 39° SW visible
30 Jun 2.5 22:26:10 10° N 22:29:54 88° W 22:31:14 38° S visible
01 Jul 2.8 22:01:30 10° N 22:05:09 54° ENE 22:06:58 26° SE visible
02 Jul 3.5 21:36:59 10° N 21:40:22 32° ENE 21:42:42 16° SE visible
02 Jul 5.3 23:13:30 10° WNW 23:15:12 13° W 23:16:53 10° WSW visible
03 Jul 4.1 21:12:41 10° NNE 21:15:32 21° ENE 21:18:20 10° ESE visible
03 Jul 4.9 22:47:51 10° NW 22:50:37 20° W 22:52:51 12° SW visible
04 Jul 4.1 22:22:40 10° NNW 22:25:59 32° W 22:28:39 14° SSW visible
05 Jul 3.2 21:57:42 10° NNW 22:01:18 54° W 22:04:28 12° S visible
06 Jul 2.5 21:32:54 10° N 21:36:36 87° E 21:40:11 10° S visible
